THOR ABLESTAR DEB, 127

Orbit data source: Space-Track

THOR ABLESTAR DEB, 127 is space debris in LEO originally from a launch on Thu, 29 Jun 1961 UTC launched from the Air Force Eastern Test Range (AFETR). Debris objects in space refer to the collection of defunct objects orbiting the Earth. Examples of debris include non-operational satellites, rocket bodies, and fragments generated from explosions, collisions, or faulty payload assembly.

Loading next visibility...
Identifier
127, 1961-015M
Orbit
LEO
Country
Flag of USUS
Related business
Manufacturer
Unknown
Mission
Spacecraft
Bus & Motor
Unknown
Mass
Unknown
Launch date (UTC)
1961-06-29 (65 years ago)
Launch vehicle
Unknown
Launch site
Air Force Eastern Test Range (AFETR)
Object type
Payload
Rocket body
Debris
Shape & HBR
Unknown shape, 0.5 m
Radar Cross Section
Medium (>0.1 m² and <1 m²)

Expand to show TLE details & history
Last TLE update: 8 hours ago

TLE from 8 hours ago
0 THOR ABLESTAR DEB
1 00127U 61015M   26119.91610536  .00002359  00000-0  63930-3 0  9996
2 00127  66.8284  74.8254 0058791  37.6175 322.9023 14.48410491359863
Epoch: 2026-04-29T21:59Z
TLE epoch observation values (Epoch: 2026-04-29T21:59:11.503Z)
Latitude
0.00001°
Longitude
-112.84273°
Altitude
699.73 km
Speed
7.524 km/s
True Right ascension
04h 59m 18s
True Declination
0° 00' 00"
Sunlit
Object was in daylight at epoch
Visualization orbit readout
Latitude
Unknown
Longitude
Unknown
Altitude
Unknown
Speed
Unknown
Apparent Right ascension
Unknown
Apparent Declination
Unknown
Sunlit
N/A
Visualization observer readout
Local Sidereal Time
13:37:37
Azimuth
Unknown
Elevation
Unknown
Doppler factor
Unknown
Orbital elements
Apogee altitude
770.975 km
Perigee altitude
687.406 km
Semi-major axis
7,107.328 km
Eccentricity
0.00588
Inclination
66.8284°
RAAN
74.8254°
Arg. of periapsis
37.6175°
True anomaly
322.49355°
Mean anomaly
322.9023°
Eccentric anomaly
322.69817°
Mean motion
3.62229 °/min
Orbital period
99.38 mins
BSTAR
0.0006393
Loading maneuver chart data...
Computing Atmospheric mass density...

Documentation

Showing up to 5 results
|